Regional Weather Roundup
Issued by NWS Newport/Morehead, NC

Current Version | Previous Version | Text Only | Print | Product List | Glossary On
Versions: 1 2 3 4 5 6 7 8 9 10 11 12 13 14 15 16 17 18 19 20 21 22 23 24 25 26 27 28 29 30 31 32 33 34 35 36 37 38 39 40 41 42 43 44 45 46 47 48 49 50
000 ASUS42 KMHX 310713 RWRMHX WEATHER ROUNDUP FOR EASTERN NORTH CAROLINA NATIONAL WEATHER SERVICE NEWPORT/MOREHEAD CITY NC 300 AM EDT FRI JUL 31 2015 NOTE: "FAIR" INDICATES FEW OR NO CLOUDS BELOW 12,000 FEET WITH NO SIGNIFICANT WEATHER AND/OR OBSTRUCTIONS TO VISIBILITY NCZ015>017-031-032-045>047-102-103-310800- NORTH COAST CITY SKY/WX TMP DP RH WIND PRES REMARKS EDENTON N/A 80 74 84 SW5 29.87S ELIZABETH CITY MOCLDY 77 76 96 CALM 29.88S KITTY HAWK MOSUNNY 80 75 83 SW3 29.87R MANTEO PTCLDY 80 75 85 SW8 29.88S $$ NCZ045>047-081-094-103-104-310800- CENTRAL COAST CITY SKY/WX TMP DP RH WIND PRES REMARKS FRISCO MOCLDY 81 76 84 S5 29.88S SWANQUARTER N/A 81 N/A N/A SW6 29.82S $$ NCZ095-097-098-100-101-310800- SOUTHERN COAST CITY SKY/WX TMP DP RH WIND PRES REMARKS BEAUFORT CLEAR 76 76 100 N3 29.86F CEDAR ISLAND N/A 79 N/A N/A CALM 29.91S JACKSONVILLE CLEAR 76 74 93 W6 29.87S PINEY ISLAND SUNNY N/A N/A N/A MISG 29.86F WILMINGTON CLEAR 77 75 93 CALM 29.87F $$ NCZ011>013-027>030-043-044-078>080-089-090>093-098-310800- COASTAL PLAIN CITY SKY/WX TMP DP RH WIND PRES REMARKS AHOSKIE PTCLDY 76 74 93 CALM 29.88S CLINTON CLEAR 77 76 95 W5 29.89R ELIZABETHTOWN PTCLDY 78 75 92 CALM 29.87F GOLDSBORO NOT AVBL GREENVILLE PTCLDY 79 77 94 CALM 29.90S HAVELOCK CLEAR 76 74 93 CALM 29.88S KENANSVILLE CLEAR N/A N/A N/A CALM 29.88F KINSTON CLEAR 77 75 94 CALM 29.88F NEW BERN PTCLDY 74 72 93 CALM 29.88F RICHLANDS PTCLDY 73 68 83 CALM 29.88S ROCKY MOUNT MOCLDY 78 76 93 CALM 29.88F WASHINGTON PTCLDY 77 74 91 CALM 29.88S WHITEVILLE PTCLDY 77 74 92 CALM 29.87F $$ AMZ130-135-150-152-154-156-158-170-250-252-270-ANZ085-086-088-633-658-670-310800- MARINE OBSERVATIONS STATION/POSITION TIME TEMP WIND PRES WAVE SWELL AIR SEA DIR/SP/G HT/PER HT/PER (UTC) (F) (DEG/KT/KT) (MB) (FT/S) (FT/S) CHESAPEAKE LIGHT 0700 80 230/ 10/ 11 1012.2 64 E VA BEACH 0650 81 81 200/ 12/ 14 1011.6 4/ 7 3/ 7 DUCK 0600 81 64 200/ 8/ 11 1010.7 2 E DUCK 0611 69 N/A 2/ 9 OREGON INLET 0600 82 83 180/ 9/ 12 1011.7 13E OREGON INLT 0700 81 N/A 4/ 8 HATTERAS CG 0600 81 84 160/ 6/ 9 1011.4 DIAMOND BUOY 0650 83 85 150/ 8/ 12 1011.5 5/ 7 5/ 7 CAPE LOOKOUT 0700 81 CALM 1010.9 BEAUFORT LAB 0600 80 83 10/ 1/ 1 1010.7 30 SE NEW RVR IN NOT AVBL 27 SE WRIGHTSVLE 0600 78 83 310/ 6/ 8 N/A 5 SE WRIGHTSVLE 0608 81 83 290/ 8/ 10 1011.6 225 S CAPE HAT 0650 79 81 240/ 23/ 31 1013.0 11/ 9 2/14 41 SE CHARLESTON 0650 83 84 250/ 14/ 17 1011.8 3/ 8 2/ 8 $$

USA.gov is the U.S. government's official web portal to all federal, state and local government web resources and services.